TimeEST,TemperatureF,Dew PointF,Humidity,Sea Level PressureIn,VisibilityMPH,Wind Direction,Wind SpeedMPH,Gust SpeedMPH,PrecipitationIn,Events,Conditions,WindDirDegrees,DateUTC
12:16 AM,5.4,1.4,84,29.79,10.0,NNW,3.5,-,N/A,,Overcast,330,2013-02-01 05:16:00
12:35 AM,5.2,0.5,81,29.80,10.0,NW,4.6,-,N/A,,Overcast,320,2013-02-01 05:35:00
1:16 AM,4.5,-0.4,80,29.81,7.0,NNW,4.6,-,N/A,,Overcast,330,2013-02-01 06:16:00
1:35 AM,4.1,-0.4,82,29.82,10.0,NNW,4.6,-,N/A,,Overcast,330,2013-02-01 06:35:00
1:56 AM,3.9,-0.9,80,29.82,10.0,North,3.5,-,N/A,,Overcast,360,2013-02-01 06:56:00
2:15 AM,3.6,-1.7,79,29.83,10.0,North,4.6,-,N/A,,Overcast,360,2013-02-01 07:15:00
2:36 AM,3.2,-1.8,80,29.84,10.0,North,4.6,-,N/A,,Overcast,350,2013-02-01 07:36:00
3:15 AM,2.8,-2.6,78,29.87,10.0,NNW,4.6,-,N/A,,Mostly Cloudy,340,2013-02-01 08:15:00
3:36 AM,2.3,-3.1,78,29.87,10.0,NNW,3.5,-,N/A,,Mostly Cloudy,340,2013-02-01 08:36:00
3:56 AM,2.3,-2.6,80,29.88,7.0,NNW,4.6,-,N/A,,Overcast,330,2013-02-01 08:56:00
4:15 AM,2.1,-3.3,78,29.88,10.0,NNW,4.6,-,N/A,,Overcast,330,2013-02-01 09:15:00
4:36 AM,1.8,-4.4,76,29.89,10.0,NNW,3.5,-,N/A,,Overcast,340,2013-02-01 09:36:00
4:56 AM,1.4,-5.3,74,29.90,10.0,North,3.5,-,N/A,,Overcast,350,2013-02-01 09:56:00
5:15 AM,1.4,-4.9,75,29.91,10.0,Calm,Calm,-,N/A,,Overcast,0,2013-02-01 10:15:00
5:36 AM,1.4,-4.9,75,29.92,10.0,Calm,Calm,-,N/A,,Overcast,0,2013-02-01 10:36:00
6:15 AM,0.5,-6.0,74,29.94,10.0,NNW,4.6,-,N/A,,Overcast,330,2013-02-01 11:15:00
6:36 AM,0.5,-5.4,76,29.94,10.0,North,3.5,-,N/A,,Overcast,350,2013-02-01 11:36:00
6:55 AM,0.5,-5.8,75,29.95,10.0,Calm,Calm,-,N/A,,Overcast,0,2013-02-01 11:55:00
7:16 AM,0.3,-5.8,75,29.97,10.0,North,4.6,-,N/A,,Overcast,350,2013-02-01 12:16:00
7:36 AM,0.3,-5.4,77,29.98,10.0,North,4.6,-,N/A,,Overcast,350,2013-02-01 12:36:00
7:55 AM,-0.2,-5.6,78,29.98,10.0,North,3.5,-,N/A,,Overcast,350,2013-02-01 12:55:00
8:16 AM,0.1,-5.3,78,30.00,10.0,Calm,Calm,-,N/A,,Overcast,0,2013-02-01 13:16:00
8:36 AM,0.5,-6.2,74,30.00,10.0,NNW,4.6,-,N/A,,Mostly Cloudy,340,2013-02-01 13:36:00
8:55 AM,0.3,-6.5,73,30.01,10.0,North,5.8,-,N/A,,Overcast,350,2013-02-01 13:55:00
9:16 AM,0.1,-6.7,73,30.02,10.0,North,5.8,-,N/A,,Overcast,360,2013-02-01 14:16:00
9:36 AM,0.9,-6.3,72,30.03,10.0,North,4.6,-,N/A,,Overcast,360,2013-02-01 14:36:00
10:15 AM,1.4,-5.8,72,30.03,10.0,North,6.9,-,N/A,,Overcast,10,2013-02-01 15:15:00
10:36 AM,1.9,-5.3,72,30.04,10.0,North,5.8,-,N/A,,Mostly Cloudy,10,2013-02-01 15:36:00
10:56 AM,1.9,-5.1,72,30.03,10.0,North,4.6,-,N/A,,Mostly Cloudy,10,2013-02-01 15:56:00
11:15 AM,2.8,-5.3,69,30.04,10.0,North,4.6,-,N/A,,Scattered Clouds,10,2013-02-01 16:15:00
11:36 AM,3.0,-5.1,69,30.04,10.0,North,3.5,-,N/A,,Scattered Clouds,350,2013-02-01 16:36:00
11:56 AM,2.8,-4.9,70,30.05,10.0,North,5.8,-,N/A,,Mostly Cloudy,350,2013-02-01 16:56:00
12:15 PM,3.2,-4.5,70,30.05,10.0,North,4.6,-,N/A,,Mostly Cloudy,360,2013-02-01 17:15:00
12:36 PM,3.6,-3.8,71,30.04,7.0,Calm,Calm,-,N/A,,Overcast,0,2013-02-01 17:36:00
12:55 PM,4.6,-3.1,70,30.04,10.0,Calm,Calm,-,N/A,,Overcast,0,2013-02-01 17:55:00
1:16 PM,5.7,-2.2,70,30.04,10.0,Calm,Calm,-,N/A,,Overcast,0,2013-02-01 18:16:00
1:35 PM,5.9,-1.5,72,30.04,10.0,Calm,Calm,-,N/A,,Overcast,0,2013-02-01 18:35:00
1:56 PM,8.6,0.5,70,30.03,10.0,Calm,Calm,-,N/A,,Mostly Cloudy,0,2013-02-01 18:56:00
2:16 PM,8.2,1.4,74,30.03,10.0,North,3.5,-,N/A,,Mostly Cloudy,10,2013-02-01 19:16:00
2:35 PM,8.6,2.3,76,30.03,10.0,Calm,Calm,-,N/A,,Overcast,0,2013-02-01 19:35:00
2:56 PM,10.8,4.6,76,30.02,7.0,Calm,Calm,-,N/A,,Overcast,0,2013-02-01 19:56:00
3:15 PM,11.7,7.2,82,30.03,5.0,Calm,Calm,-,N/A,,Haze,0,2013-02-01 20:15:00
3:36 PM,11.7,6.3,79,30.03,7.0,Calm,Calm,-,N/A,,Overcast,0,2013-02-01 20:36:00
3:56 PM,10.4,6.3,83,30.03,7.0,Calm,Calm,-,N/A,,Overcast,0,2013-02-01 20:56:00
4:15 PM,11.3,7.5,85,30.03,5.0,SSW,3.5,-,N/A,,Overcast,210,2013-02-01 21:15:00
4:36 PM,12.6,8.6,84,30.02,10.0,Calm,Calm,-,N/A,,Overcast,0,2013-02-01 21:36:00
5:15 PM,13.8,7.7,77,30.02,10.0,West,3.5,-,N/A,,Overcast,270,2013-02-01 22:15:00
5:36 PM,14.0,7.3,75,30.02,10.0,West,4.6,-,N/A,,Overcast,260,2013-02-01 22:36:00
6:15 PM,14.0,5.5,69,30.02,10.0,West,6.9,-,N/A,,Overcast,280,2013-02-01 23:15:00
6:36 PM,13.6,5.9,71,30.03,10.0,West,5.8,-,N/A,,Overcast,280,2013-02-01 23:36:00
6:55 PM,13.5,5.9,72,30.03,10.0,West,4.6,-,N/A,,Overcast,280,2013-02-01 23:55:00
7:16 PM,13.5,5.9,72,30.03,10.0,West,4.6,-,N/A,,Overcast,260,2013-02-02 00:16:00
7:36 PM,13.1,6.1,74,30.03,10.0,West,3.5,-,N/A,,Overcast,260,2013-02-02 00:36:00
7:55 PM,13.1,6.6,75,30.03,10.0,Calm,Calm,-,N/A,,Overcast,0,2013-02-02 00:55:00
8:16 PM,13.1,6.8,76,30.03,10.0,West,4.6,-,N/A,,Overcast,270,2013-02-02 01:16:00
8:36 PM,13.1,7.2,77,30.03,10.0,West,5.8,-,N/A,,Overcast,270,2013-02-02 01:36:00
9:00 PM,13.1,7.7,79,30.02,10.0,West,4.6,-,N/A,Snow,Light Snow,270,2013-02-02 02:00:00
9:16 PM,12.7,7.7,80,30.02,10.0,West,4.6,-,N/A,Snow,Light Snow,280,2013-02-02 02:16:00
9:36 PM,12.7,7.9,81,30.02,7.0,West,5.8,-,N/A,,Overcast,280,2013-02-02 02:36:00
9:55 PM,12.6,7.5,80,30.02,10.0,WNW,3.5,-,N/A,,Overcast,290,2013-02-02 02:55:00
10:16 PM,12.2,7.7,82,30.02,10.0,Calm,Calm,-,N/A,,Overcast,0,2013-02-02 03:16:00
10:35 PM,12.2,8.6,85,30.01,1.8,WSW,3.5,-,N/A,Snow,Light Snow,250,2013-02-02 03:35:00
10:56 PM,11.7,9.1,90,30.01,1.2,Calm,Calm,-,N/A,Snow,Light Snow,0,2013-02-02 03:56:00
11:16 PM,11.7,9.3,90,30.01,1.2,Calm,Calm,-,N/A,Snow,Snow,0,2013-02-02 04:16:00
11:35 PM,11.5,9.5,92,30.00,1.2,Calm,Calm,-,N/A,Snow,Light Snow,0,2013-02-02 04:35:00
11:56 PM,12.2,9.9,90,30.00,1.8,Calm,Calm,-,N/A,Snow,Light Snow,0,2013-02-02 04:56:00